HISPASAT 30W-6

Last updated on Sun Apr 27 2025 00:02:41 GMT+0000 (Coordinated Universal Time)

1 43228U 18023A 25116.30996370 -.00000214 00000+0 00000+0 0 9991 2 43228 0.0253 12.2783 0005915 27.7734 256.0853 1.00268152 26310
UTC large
Height (km)
Speed (km/s)
/
Latitude / Longitude
Inclination (degrees)
Orbital Period (minutes)
Azimuth
Elevation
Range (km)
Doppler Factor

Next 0 passes for location: London (51.5072 / 0.1276)

Sorry there are no passes over London.